Location: ???????
(55.4362°N, 38.1183°E)
Time: 16:31:12
(UTC+00:00)

Lacrosse 5 rocket - Pass Details

Date: 17 June 2021
Orbit: 460 x 634 km, 57.0° (Epoch: 29 July)

Event Time Altitude Azimuth Distance (km) Brightness Sun altitude
Rises 22:26:24 0° 272° (W) 2,493 4.6 -10.2°
Reaches altitude 10° 22:28:33 10° 275° (W) 1,612 3.6 -10.1°
Maximum altitude 22:32:07 66° 359° (N) 508 1.4 -10.0°
Drops below altitude 10° 22:35:44 10° 83° (E) 1,627 4.0 -9.9°
Sets 22:37:55 0° 86° (E) 2,518 5.0 -9.8°
